OZ7MKS Weather Reports


time (UTC)temp
C
wind
direction
speed
KPH
gust
KPH
rain 1hr
cm
rain 24hr
cm
rain mn
cm
humidity
%
barometer
mb
20260502214504 11 242 8.0 19.3 0.00 0.00 0.00 92 1011.9
20260502213503 11 236 4.8 9.7 0.00 0.00 0.00 92 1011.9
20260502213004 11 256 4.8 8.0 0.00 0.00 0.00 92 1011.7
20260502212504 12 227 4.8 11.3 0.00 0.00 0.00 92 1011.6
20260502211504 12 232 8.0 19.3 0.00 0.00 0.00 92 1011.8
20260502210504 12 232 8.0 16.1 0.00 0.00 0.00 91 1011.9
20260502210004 12 236 4.8 12.9 0.00 0.00 0.00 91 1011.8
20260502205504 12 224 6.4 12.9 0.00 0.00 0.00 91 1011.8
20260502204504 12 223 4.8 11.3 0.00 0.00 0.00 91 1011.7
20260502204003 13 234 4.8 11.3 0.00 0.00 0.00 90 1011.8
20260502203504 13 205 6.4 14.5 0.00 0.00 0.00 90 1011.9
20260502203004 13 212 4.8 11.3 0.00 0.00 0.00 90 1011.9
20260502202503 13 220 4.8 12.9 0.00 0.00 0.00 89 1012.0
20260502201503 13 224 3.2 12.9 0.00 0.00 0.00 89 1011.9
20260502201004 13 220 6.4 12.9 0.00 0.00 0.00 89 1011.9
20260502200504 13 228 4.8 11.3 0.00 0.00 0.00 89 1012.0
20260502200003 13 206 4.8 11.3 0.00 0.00 0.00 89 1012.0
20260502195503 13 221 4.8 11.3 0.00 0.00 0.00 89 1012.0
20260502195004 14 212 3.2 4.8 0.00 0.00 0.00 88 1012.1
20260502194504 14 230 4.8 16.1 0.00 0.00 0.00 88 1012.0
20260502194003 14 204 1.6 4.8 0.00 0.00 0.00 88 1011.9
20260502193504 14 229 3.2 9.7 0.00 0.00 0.00 88 1012.0
20260502193004 14 203 3.2 11.3 0.00 0.00 0.00 87 1012.1
20260502192004 14 237 4.8 11.3 0.00 0.00 0.00 87 1012.0
20260502191504 15 211 4.8 9.7 0.00 0.00 0.00 87 1012.0
20260502191003 15 236 4.8 11.3 0.00 0.00 0.00 87 1012.0
20260502190503 15 262 3.2 12.9 0.00 0.00 0.00 86 1012.0
20260502190004 15 237 4.8 9.7 0.00 0.00 0.00 86 1011.9
20260502185504 15 205 3.2 8.0 0.00 0.00 0.00 86 1011.8
20260502185003 15 186 4.8 12.9 0.00 0.00 0.00 85 1011.8
20260502184004 15 233 3.2 12.9 0.00 0.00 0.00 84 1011.8
20260502183003 15 207 3.2 9.7 0.00 0.00 0.00 85 1012.0
20260502182503 16 236 3.2 11.3 0.00 0.00 0.00 84 1012.0
20260502182004 16 235 3.2 4.8 0.00 0.00 0.00 84 1012.1
20260502181504 16 234 1.6 8.0 0.00 0.00 0.00 84 1012.1
20260502181004 16 240 4.8 8.0 0.00 0.00 0.00 84 1012.2
20260502180504 16 243 3.2 12.9 0.00 0.00 0.00 83 1012.2
20260502170504 17 233 8.0 12.9 0.00 0.00 0.00 82 1012.4
20260502164004 17 248 6.4 14.5 0.00 0.00 0.00 80 1012.6
20260502163503 17 246 4.8 16.1 0.00 0.00 0.00 79 1012.5
20260502163003 17 246 9.7 20.9 0.00 0.00 0.00 79 1012.7
20260502162503 17 243 11.3 22.5 0.00 0.00 0.00 78 1012.7
20260502162004 18 250 9.7 19.3 0.00 0.00 0.00 78 1012.7
20260502161503 18 240 8.0 20.9 0.00 0.00 0.00 78 1012.6
20260502161004 18 252 8.0 19.3 0.00 0.00 0.00 77 1012.7
20260502152004 21 233 11.3 27.4 0.00 0.00 0.00 70 1012.7
20260502151504 21 248 16.1 25.7 0.00 0.00 0.00 69 1012.7
20260502151003 22 247 9.7 24.1 0.00 0.00 0.00 70 1012.7
20260502150504 22 241 9.7 22.5 0.00 0.00 0.00 69 1012.8
20260502130504 24 231 9.7 27.4 0.00 0.00 0.00 44 1013.2
20260502123504 24 218 9.7 32.2 0.00 0.00 0.00 45 1013.5
20260502123004 23 227 12.9 24.1 0.00 0.00 0.00 45 1013.5
20260502122504 23 229 14.5 25.7 0.00 0.00 0.00 43 1013.6
20260502122004 24 238 17.7 32.2 0.00 0.00 0.00 43 1013.7
20260502121503 24 243 11.3 22.5 0.00 0.00 0.00 44 1013.6
20260502121004 24 229 11.3 25.7 0.00 0.00 0.00 44 1013.8
20260502120504 23 219 9.7 27.4 0.00 0.00 0.00 44 1013.8
20260502115504 24 221 12.9 25.7 0.00 0.00 0.00 44 1013.9
20260502115003 23 202 14.5 29.0 0.00 0.00 0.00 45 1014.0
20260502114504 23 222 9.7 27.4 0.00 0.00 0.00 46 1014.0
20260502114004 23 249 12.9 29.0 0.00 0.00 0.00 46 1014.0
20260502113503 23 240 14.5 25.7 0.00 0.00 0.00 45 1014.0
20260502113004 23 224 14.5 25.7 0.00 0.00 0.00 45 1014.0
20260502112504 23 225 12.9 25.7 0.00 0.00 0.00 45 1014.1
20260502112003 23 222 9.7 32.2 0.00 0.00 0.00 46 1014.1
20260502111504 23 216 11.3 25.7 0.00 0.00 0.00 46 1014.2
20260502111004 23 219 9.7 25.7 0.00 0.00 0.00 47 1014.3
20260502110504 23 254 11.3 32.2 0.00 0.00 0.00 46 1014.3
20260502110004 23 221 12.9 25.7 0.00 0.00 0.00 46 1014.4
20260502105503 23 216 11.3 22.5 0.00 0.00 0.00 46 1014.3
20260502105003 23 229 9.7 20.9 0.00 0.00 0.00 47 1014.4
20260502104503 23 236 11.3 22.5 0.00 0.00 0.00 47 1014.4
20260502104004 23 256 6.4 19.3 0.00 0.00 0.00 49 1014.4
20260502103503 23 204 12.9 27.4 0.00 0.00 0.00 48 1014.5
20260502103004 23 233 9.7 20.9 0.00 0.00 0.00 49 1014.5
20260502102504 22 238 4.8 22.5 0.00 0.00 0.00 51 1014.6
20260502102003 22 205 9.7 25.7 0.00 0.00 0.00 50 1014.7
20260502101504 22 223 12.9 25.7 0.00 0.00 0.00 50 1014.8
20260502101004 22 215 9.7 20.9 0.00 0.00 0.00 51 1014.7
20260502100504 22 207 9.7 19.3 0.00 0.00 0.00 52 1014.8
20260502091504 21 224 9.7 22.5 0.00 0.00 0.00 56 1015.2
20260502091003 21 203 9.7 20.9 0.00 0.00 0.00 59 1015.3
20260502090504 21 208 9.7 16.1 0.00 0.00 0.00 59 1015.3
20260502071504 17 200 8.0 12.9 0.00 0.00 0.00 73 1016.0
20260502071003 16 229 4.8 12.9 0.00 0.00 0.00 74 1016.1
20260502065504 16 203 3.2 11.3 0.00 0.00 0.00 76 1016.1
20260502065004 16 198 3.2 11.3 0.00 0.00 0.00 76 1016.1
20260502064504 15 213 3.2 11.3 0.00 0.00 0.00 76 1016.1
20260502063504 15 194 3.2 11.3 0.00 0.00 0.00 76 1016.1
20260502062504 14 192 3.2 12.9 0.00 0.00 0.00 77 1016.2
20260502062004 14 194 6.4 12.9 0.00 0.00 0.00 77 1016.2
20260502060504 13 200 4.8 11.3 0.00 0.00 0.00 78 1016.4
20260502055003 12 198 4.8 16.1 0.00 0.00 0.00 78 1016.5
20260502053504 12 207 3.2 4.8 0.00 0.00 0.00 79 1016.5
20260502053004 12 212 4.8 12.9 0.00 0.00 0.00 79 1016.6
20260502052504 12 215 3.2 9.7 0.00 0.00 0.00 80 1016.6
20260502052003 11 203 4.8 11.3 0.00 0.00 0.00 80 1016.6
20260502051504 11 206 3.2 9.7 0.00 0.00 0.00 80 1016.6
20260502051004 11 234 3.2 12.9 0.00 0.00 0.00 81 1016.6
20260502050504 11 232 4.8 11.3 0.00 0.00 0.00 81 1016.6
20260502050004 11 201 4.8 12.9 0.00 0.00 0.00 81 1016.6
20260502045004 10 229 3.2 4.8 0.00 0.00 0.00 82 1016.7
20260502044504 10 199 3.2 9.7 0.00 0.00 0.00 82 1016.7
20260502044004 10 193 3.2 9.7 0.00 0.00 0.00 82 1016.8
20260502043503 10 251 4.8 11.3 0.00 0.00 0.00 82 1016.8
20260502043004 10 206 1.6 8.0 0.00 0.00 0.00 82 1016.8
20260502042503 10 269 1.6 9.7 0.00 0.00 0.00 82 1016.8
20260502042004 10 222 3.2 12.9 0.00 0.00 0.00 82 1016.9
20260502041504 10 245 3.2 4.8 0.00 0.00 0.00 82 1016.9
20260502040504 10 210 3.2 11.3 0.00 0.00 0.00 82 1016.9
20260502035503 10 228 3.2 14.5 0.00 0.00 0.00 82 1017.0
20260502034004 10 186 3.2 9.7 0.00 0.00 0.00 82 1017.2
20260502033504 10 216 3.2 8.0 0.00 0.00 0.00 82 1017.2
20260502033004 10 198 1.6 4.8 0.00 0.00 0.00 82 1017.4
20260502032503 10 191 3.2 11.3 0.00 0.00 0.00 82 1017.4
20260502032004 10 219 1.6 11.3 0.00 0.00 0.00 82 1017.5
20260502031003 10 200 3.2 8.0 0.00 0.00 0.00 82 1017.6
20260502030503 10 209 4.8 12.9 0.00 0.00 0.00 82 1017.7
20260502030004 10 184 3.2 11.3 0.00 0.00 0.00 82 1017.7
20260502025503 10 181 1.6 8.0 0.00 0.00 0.00 82 1017.8
20260502025003 10 185 4.8 9.7 0.00 0.00 0.00 82 1017.9
20260502024504 10 207 3.2 11.3 0.00 0.00 0.00 82 1018.0
20260502024004 10 225 1.6 11.3 0.00 0.00 0.00 82 1018.0
20260502023504 10 198 1.6 8.0 0.00 0.00 0.00 83 1018.1
20260502023003 9 218 3.2 8.0 0.00 0.00 0.00 83 1018.2
20260502022503 9 212 3.2 4.8 0.00 0.00 0.00 83 1018.2
20260502022004 9 222 1.6 4.8 0.00 0.00 0.00 83 1018.3
20260502021504 9 223 0.0 4.8 0.00 0.00 0.00 84 1018.4
20260502021004 9 225 1.6 4.8 0.00 0.00 0.00 84 1018.5
20260502020504 9 215 1.6 3.2 0.00 0.00 0.00 84 1018.5
20260502020004 9 216 1.6 3.2 0.00 0.00 0.00 85 1018.6
20260502015504 9 218 0.0 3.2 0.00 0.00 0.00 86 1018.7
20260502015004 8 219 3.2 4.8 0.00 0.00 0.00 86 1018.8
20260502014504 8 207 1.6 4.8 0.00 0.00 0.00 87 1018.8
20260502014004 8 205 0.0 1.6 0.00 0.00 0.00 87 1018.9
20260502013504 8 205 0.0 4.8 0.00 0.00 0.00 88 1018.9
20260502013003 8 177 0.0 4.8 0.00 0.00 0.00 88 1019.0
20260502012504 8 190 0.0 4.8 0.00 0.00 0.00 89 1019.1
20260502012004 8 198 0.0 4.8 0.00 0.00 0.00 90 1019.1
20260502011504 8 198 0.0 3.2 0.00 0.00 0.00 90 1019.2
20260502011004 7 198 0.0 3.2 0.00 0.00 0.00 91 1019.3
20260502010504 7 198 0.0 1.6 0.00 0.00 0.00 92 1019.4
20260502010004 7 198 0.0 3.2 0.00 0.00 0.00 92 1019.5
20260502005503 7 201 1.6 4.8 0.00 0.00 0.00 92 1019.6
20260502005004 6 236 0.0 0.0 0.00 0.00 0.00 92 1019.6
20260502004504 6 236 0.0 0.0 0.00 0.00 0.00 92 1019.7
20260502002503 6 236 0.0 0.0 0.00 0.00 0.00 91 1020.0
20260502002003 6 236 0.0 0.0 0.00 0.00 0.00 91 1020.1
20260502001503 6 236 0.0 0.0 0.00 0.00 0.00 91 1020.1
20260502001004 6 236 0.0 0.0 0.00 0.00 0.00 90 1020.1
20260502000504 6 236 0.0 0.0 0.00 0.00 0.00 90 1020.2
20260502000004 6 236 0.0 0.0 0.00 0.00 0.00 90 1020.3
20260501235504 6 236 0.0 0.0 0.00 0.00 0.00 90 1020.3
20260501235004 6 236 0.0 0.0 0.00 0.00 0.00 90 1020.4
20260501234503 6 236 0.0 0.0 0.00 0.00 0.00 90 1020.4
20260501234003 6 236 0.0 0.0 0.00 0.00 0.00 90 1020.5
20260501233504 7 236 0.0 0.0 0.00 0.00 0.00 90 1020.6
20260501232504 7 236 0.0 0.0 0.00 0.00 0.00 90 1020.8
20260501232004 7 236 0.0 0.0 0.00 0.00 0.00 90 1020.8
20260501231503 7 236 0.0 0.0 0.00 0.00 0.00 90 1020.9
20260501230504 7 236 0.0 0.0 0.00 0.00 0.00 90 1021.1
20260501230004 7 236 0.0 0.0 0.00 0.00 0.00 90 1021.1
20260501225504 7 236 0.0 0.0 0.00 0.00 0.00 90 1021.2
20260501224504 7 236 0.0 0.0 0.00 0.00 0.00 89 1021.3
20260501224004 7 236 0.0 0.0 0.00 0.00 0.00 89 1021.3
20260501223004 7 236 0.0 0.0 0.00 0.00 0.00 88 1021.5
20260501222503 7 236 0.0 0.0 0.00 0.00 0.00 88 1021.6
20260501222004 7 236 0.0 0.0 0.00 0.00 0.00 87 1021.6
20260501221504 7 236 0.0 0.0 0.00 0.00 0.00 87 1021.7
20260501221004 7 236 0.0 0.0 0.00 0.00 0.00 87 1021.8
20260501220504 8 236 0.0 0.0 0.00 0.00 0.00 86 1021.8
20260501220004 8 236 0.0 0.0 0.00 0.00 0.00 86 1021.9
20260501215504 8 236 0.0 0.0 0.00 0.00 0.00 86 1021.9
20260501215004 8 236 0.0 0.0 0.00 0.00 0.00 86 1021.9